Hourly Data Report for September 04, 2019

All times are specified in Local Standard Time (LST). Add 1 hour to adjust for Daylight Saving Time where and when it is observed.

EUREKA CLIMATE
NUNAVUT
Current Station Operator: ECCC - MSC

79°59'21.000" N
85°56'02.000" W
10.00 m
2401199
71613
NEK

Download Data

Hourly Data (September 2019)
Hourly Data Report for September 4, 2019
TIME Temp Definition
°C
Dew Point Definition
°C
Rel Hum Definition
%
Wind Dir Definition
10's deg

Wind Spd Definition
km/h
Visibility Definition
km
Stn Press Definition
kPa
Hmdx Definition


Wind Chill Definition


Weather Definition


00:00 0.4 -1.4 87 30 11   101.36     LegendNANA
01:00 -1.0 -2.5 90 35 9   101.35   -4 LegendNANA
02:00 -0.6 -1.6 93 1 7   101.34   -3 LegendNANA
03:00 -1.3 -2.3 93 1 11   101.35   -5 LegendNANA
04:00 -1.6 -2.2 96 7 6   101.35   -4 LegendNANA
05:00 -1.3 -1.8 97 9 6   101.35   -4 LegendNANA
06:00 -1.3 -1.7 97 12 10   101.36   -5 LegendNANA
07:00 -1.3 -1.4 99 10 9   101.34   -5 LegendNANA
08:00 -1.4 -1.9 97 11 11   101.31   -5 LegendNANA
09:00 -1.1 -1.3 98 12 11   101.29   -5 LegendNANA
10:00 -0.7 -1.7 93 11 10   101.26   -4 LegendNANA
11:00 -0.2 -1.5 91 14 12   101.24   -4 LegendNANA
12:00 2.3 -2.6 70 28 7   101.23     LegendNANA
13:00 2.4 -1.5 76 28 12   101.20     LegendNANA
14:00 2.5 -1.6 74 29 21   101.20     LegendNANA
15:00 2.1 -1.3 78 29 25   101.20     LegendNANA
16:00 2.2 -1.9 75 29 21   101.22     LegendNANA
17:00 1.9 -1.5 78 30 20   101.23     LegendNANA
18:00 1.7 -1.3 80 27 15   101.24     LegendNANA
19:00 1.6 -1.6 79 28 17   101.25     LegendNANA
20:00 1.9 -2.3 73 28 20   101.22     LegendNANA
21:00 1.4 -2.3 76 29 22   101.21     LegendNANA
22:00 1.5 -2.7 73 30 17   101.21     LegendNANA
23:00 0.5 -1.7 86 30 16   101.21     LegendNANA

Notes on Data Quality.

Legend

  • E = Estimated
  • M = Missing
  • NA = Not Available
Date modified: